Wind_Speed
32 31 31 31 31 31 31 29 27 25 24 22 21 19 18 17 16 16 15 14 14 13 13 12 11 11 10 11 10 10 10 10 10 10 10 10 10 11 11 11 11 12 12 13
33 33 33 32 32 32 31 30 29 27 26 24 22 21 20 20 18 17 17 16 15 14 14 13 13 12 12 12 12 12 12 12 11 11 11 11 12 12 12 13 13 14 14 15
32 32 33 34 33 32 31 30 29 28 27 26 24 23 22 20 20 19 18 18 17 16 15 15 14 14 14 14 14 13 13 13 13 12 13 13 13 13 13 14 14 15 15 16
31 32 34 33 33 32 32 31 30 29 28 27 25 24 23 23 22 21 20 20 20 19 18 17 17 16 15 15 14 14 14 14 14 14 14 14 14 14 15 15 15 16 16 17
32 32 32 33 32 32 32 32 31 30 29 28 26 25 25 25 24 23 22 21 21 21 21 20 19 18 16 16 16 16 16 16 16 15 15 15 15 16 16 16 17 17 18 19
33 31 31 32 31 31 31 32 32 31 30 29 28 27 27 27 26 25 24 23 23 23 22 22 21 20 19 18 18 17 17 17 18 18 17 17 17 17 18 18 18 19 19 20
34 32 32 32 31 31 31 31 30 30 30 30 30 30 29 28 28 27 26 25 24 24 23 23 23 22 22 21 20 20 20 19 19 19 19 19 20 19 19 20 20 21 21 21
34 33 34 33 31 32 32 31 31 30 31 31 30 30 30 29 28 29 28 28 27 26 26 26 25 24 24 24 22 22 21 20 20 20 20 21 21 21 21 22 22 22 23 23
35 35 34 32 32 32 32 32 31 30 31 31 31 31 30 30 29 29 30 29 29 29 28 28 27 27 26 25 23 22 22 22 22 22 23 23 23 24 23 23 23 24 24 24
35 35 34 33 32 32 31 31 31 30 29 30 30 29 29 29 30 30 31 31 31 31 30 30 30 28 27 26 25 25 25 26 25 25 25 25 25 25 25 24 25 25 26 26
35 34 34 33 33 31 31 31 32 31 30 29 29 29 29 30 30 31 31 32 33 32 32 31 31 30 30 29 28 28 28 28 27 26 26 26 27 27 26 26 27 27 27 27
34 33 33 32 33 32 31 31 31 32 32 32 31 31 30 31 31 31 31 32 33 32 32 32 32 32 32 32 31 30 29 29 27 27 27 28 28 28 27 28 28 28 28 29
33 33 33 32 32 32 32 31 31 32 33 33 33 33 32 32 32 32 32 33 33 32 33 33 33 33 34 34 33 32 31 30 30 29 29 29 29 29 28 29 29 29 29 30
32 32 31 31 31 31 31 30 31 31 32 32 33 33 34 33 33 33 33 33 34 34 34 34 35 35 35 35 35 34 33 32 31 30 30 31 31 30 30 30 30 30 31 31
32 32 31 30 30 30 30 30 30 31 32 32 33 33 34 34 34 34 33 33 34 35 35 35 35 34 34 35 34 34 34 33 32 32 32 31 31 31 30 30 30 30 30 31
32 32 31 30 30 29 29 30 30 31 32 33 33 34 34 34 35 35 34 34 35 34 33 32 32 32 33 34 33 33 34 33 32 31 31 31 31 30 30 30 30 30 30 30
30 31 31 31 30 30 30 30 30 31 32 33 33 33 33 33 34 34 34 33 34 33 33 32 32 33 34 33 33 33 33 33 32 31 32 32 32 32 31 31 31 30 30 29
30 30 29 29 29 30 30 30 30 30 30 31 31 31 32 32 32 33 32 32 33 33 32 32 32 32 32 33 33 32 32 32 31 31 31 32 32 32 31 31 30 30 30 30
29 29 29 28 28 28 28 28 29 29 29 29 30 30 31 31 31 31 31 31 31 32 32 32 32 32 32 32 32 32 32 32 31 30 31 31 31 30 30 30 29 29 29 29
28 28 28 27 27 27 27 27 27 28 28 29 30 31 31 31 32 31 31 31 31 31 31 31 31 31 32 32 32 32 32 32 31 30 30 30 30 30 30 30 30 30 30 30
26 26 26 26 26 25 26 26 26 27 27 28 29 30 31 31 31 31 30 29 29 29 30 30 31 31 31 31 32 32 31 30 30 30 30 30 30 30 30 30 30 30 31 31
26 25 25 26 25 25 25 25 26 26 26 27 27 28 28 29 29 28 28 28 28 28 28 28 29 30 30 30 30 30 30 30 30 30 30 30 30 30 30 30 31 31 31 32
25 25 25 24 24 23 23 24 24 25 25 25 26 26 26 26 26 26 27 27 27 27 27 27 27 28 29 29 30 30 30 30 30 30 30 29 30 30 30 31 31 31 30 31
23 23 23 23 23 23 22 23 23 23 23 23 24 24 24 25 26 26 26 26 26 27 27 27 27 28 28 29 29 29 29 29 29 29 29 30 30 30 30 30 30 29 29 30
20 20 20 21 22 21 21 21 21 22 22 21 21 21 22 23 23 24 25 26 26 27 27 27 27 28 28 28 28 28 28 28 28 28 28 29 28 28 28 28 28 29 29 29
18 18 19 19 20 21 21 21 21 20 20 20 20 20 20 21 21 21 22 23 23 23 24 24 25 26 27 29 29 28 27 27 27 27 28 28 27 27 28 27 27 28 29 29
17 18 18 19 19 19 20 20 20 20 20 21 21 21 20 20 20 20 21 22 22 22 23 24 25 25 26 27 27 26 25 26 27 27 27 27 27 27 27 28 28 28 28 27
Wind_Direction
223 226 229 231 231 231 233 234 237 241 241 243 244 245 245 246 250 254 254 256 261 265 265 268 270 272 274 276 280 285 288 290 293 297 302 311 312 311 313 314 316 319 321 322
226 228 229 230 231 232 235 236 238 239 241 242 245 244 245 246 247 249 250 252 257 264 264 263 267 270 270 274 280 284 283 283 286 289 296 304 311 312 311 311 312 315 316 317
228 229 231 232 231 232 235 236 237 238 240 243 244 242 242 243 244 245 246 249 252 256 258 259 262 268 271 276 276 277 278 282 283 286 290 295 301 306 310 312 312 314 316 316
228 230 232 233 234 234 235 236 237 237 240 242 242 241 240 240 242 244 246 250 250 251 252 254 258 262 270 274 277 276 276 280 281 285 290 293 298 302 305 307 310 313 314 314
228 231 234 235 235 235 236 237 237 237 239 240 240 240 241 240 240 242 243 246 248 249 251 253 257 260 266 271 274 276 278 280 282 281 284 288 294 298 301 303 305 308 311 313
228 229 233 236 235 235 237 238 237 237 237 238 239 239 239 239 240 241 240 244 247 250 253 255 256 258 263 266 272 275 277 278 281 281 281 286 290 293 296 297 300 305 307 309
228 230 234 235 235 235 237 237 237 237 238 238 239 241 241 240 238 238 240 243 246 249 252 255 258 259 260 261 266 268 272 275 278 278 281 284 286 289 292 294 297 302 304 306
228 231 235 235 235 235 237 237 238 239 239 239 239 240 241 239 236 236 238 241 245 248 252 255 256 259 262 258 261 264 268 271 275 276 279 282 284 285 288 292 295 300 302 303
229 231 234 235 235 236 237 238 238 240 241 240 239 239 240 239 237 237 239 241 244 246 249 253 255 258 260 262 263 265 267 269 273 276 279 280 283 285 287 291 294 297 299 301
231 232 234 235 235 236 237 238 238 239 239 238 238 237 237 238 238 240 241 242 243 245 248 252 253 256 259 264 263 264 266 266 270 275 278 280 284 288 286 289 293 295 296 298
231 233 234 234 235 236 237 239 240 239 239 237 236 237 237 238 238 239 242 243 244 246 248 252 254 255 258 261 262 263 265 266 266 271 276 281 285 287 288 289 291 292 294 296
231 233 235 236 234 236 238 239 241 241 241 240 239 239 241 242 242 243 245 246 247 248 250 252 254 256 258 259 261 262 263 264 266 270 275 279 283 286 287 288 289 290 292 293
231 233 234 235 235 237 238 240 241 242 242 241 241 240 241 243 244 246 248 249 249 250 251 253 255 257 259 259 261 263 264 264 266 270 274 276 279 282 285 286 287 288 289 291
230 230 232 233 236 237 238 239 240 240 240 241 240 242 244 244 245 247 248 249 249 250 252 254 254 256 258 259 260 263 265 265 266 270 273 276 279 282 284 287 287 287 288 290
229 230 231 233 235 236 236 238 239 240 240 241 242 243 245 246 247 248 250 249 250 252 254 254 254 255 256 258 260 262 265 266 266 268 271 275 279 282 285 288 289 289 289 290
230 231 231 234 236 238 238 238 239 239 240 241 244 245 246 247 249 250 253 254 254 253 253 254 255 256 256 257 260 262 264 266 266 268 273 276 280 282 285 287 288 290 289 289
229 230 232 234 236 238 239 239 239 239 240 242 245 245 246 246 247 250 252 253 255 255 256 257 257 257 256 256 260 263 264 267 267 270 273 276 279 282 283 285 287 287 288 289
230 232 234 235 236 237 239 241 241 241 242 242 243 244 246 247 249 251 252 254 255 255 255 256 257 257 256 257 259 262 264 267 268 270 272 274 276 279 282 284 287 287 287 288
231 233 234 234 236 238 239 240 241 242 242 243 244 244 246 247 248 249 251 253 254 254 255 255 255 256 256 257 259 261 263 265 265 266 269 272 275 278 281 283 286 288 288 288
232 233 233 235 237 238 239 242 243 244 246 245 244 245 247 248 248 250 252 253 254 254 254 254 254 255 257 258 259 261 262 263 263 264 268 271 275 277 280 283 285 287 287 288
230 230 232 234 237 239 242 244 245 247 247 247 247 247 247 248 249 249 250 252 253 253 253 253 254 256 258 259 260 261 262 263 265 266 268 271 275 277 280 282 285 286 287 288
232 233 234 236 239 240 242 243 246 249 249 250 250 249 248 247 248 248 249 252 251 252 254 255 256 258 259 260 260 261 263 265 266 267 268 271 275 277 279 282 283 285 286 287
231 234 236 237 238 241 243 244 245 248 251 250 250 250 249 248 247 248 250 251 250 252 254 257 259 260 261 260 260 262 263 265 267 267 269 272 274 276 279 281 282 284 285 287
230 233 234 235 237 240 241 244 246 249 251 251 250 250 250 249 249 249 250 250 252 254 256 257 259 260 261 261 262 262 264 265 267 268 269 271 273 276 279 282 284 284 285 286
227 228 230 233 236 238 239 243 246 247 247 247 248 249 249 248 248 249 250 250 251 255 257 257 258 257 257 259 262 263 263 265 266 267 269 271 272 274 278 281 283 284 284 286
227 230 232 236 239 240 240 240 241 241 242 244 247 248 247 246 247 248 248 250 252 255 257 258 259 259 260 261 261 261 261 262 265 268 270 273 274 276 278 282 284 284 284 286
231 234 236 237 238 240 242 242 241 241 242 244 247 249 249 248 249 250 252 254 255 257 259 260 261 262 263 263 261 260 261 264 267 269 270 273 275 277 278 281 284 285 286 287
Height
5857 5861 5865 5869 5873 5876 5880 5885 5890 5893 5895 5897 5898 5900 5902 5903 5904 5905 5906 5907 5907 5907 5908 5908 5907 5907 5907 5906 5905 5905 5904 5903 5902 5902 5901 5899 5898 5896 5894 5892 5891 5889 5887 5885
5849 5853 5857 5862 5866 5870 5874 5878 5882 5885 5888 5890 5892 5895 5896 5898 5899 5900 5901 5902 5903 5904 5904 5904 5904 5904 5903 5903 5903 5902 5901 5901 5900 5899 5898 5897 5895 5893 5892 5890 5888 5886 5884 5882
5842 5846 5850 5854 5859 5863 5867 5871 5875 5878 5882 5883 5886 5888 5890 5892 5894 5895 5896 5897 5898 5899 5900 5900 5901 5901 5900 5900 5899 5898 5898 5897 5896 5896 5895 5894 5892 5891 5889 5887 5885 5883 5881 5879
5835 5839 5842 5850 5852 5856 5860 5863 5867 5870 5874 5876 5879 5882 5884 5886 5888 5890 5891 5893 5894 5894 5895 5895 5896 5896 5896 5896 5895 5894 5894 5894 5893 5892 5892 5890 5889 5887 5886 5884 5882 5880 5878 5875
5828 5831 5835 5840 5844 5848 5852 5855 5859 5863 5866 5869 5872 5875 5877 5879 5881 5883 5885 5887 5888 5889 5890 5890 5891 5891 5891 5891 5891 5890 5890 5889 5889 5888 5888 5887 5885 5884 5882 5880 5879 5876 5874 5872
5820 5825 5829 5834 5837 5840 5845 5847 5851 5855 5858 5861 5865 5868 5871 5872 5875 5877 5879 5880 5882 5883 5884 5885 5885 5885 5886 5886 5886 5885 5885 5885 5884 5884 5883 5882 5881 5879 5878 5876 5875 5872 5870 5867
5812 5816 5821 5825 5828 5833 5838 5841 5844 5846 5850 5853 5856 5860 5863 5865 5867 5870 5872 5874 5875 5877 5878 5878 5879 5879 5880 5880 5880 5880 5879 5879 5879 5878 5878 5877 5876 5875 5873 5872 5870 5867 5865 5862
5804 5809 5814 5817 5821 5825 5828 5832 5835 5838 5841 5845 5848 5852 5854 5857 5860 5863 5865 5867 5868 5870 5871 5871 5872 5873 5873 5873 5873 5873 5873 5873 5873 5873 5872 5871 5870 5869 5868 5866 5864 5862 5860 5857
5797 5802 5804 5808 5812 5816 5819 5823 5826 5830 5833 5837 5840 5843 5846 5849 5852 5855 5857 5859 5861 5862 5864 5865 5865 5866 5867 5867 5866 5866 5867 5867 5867 5867 5866 5865 5864 5863 5861 5860 5858 5856 5854 5851
5788 5792 5796 5800 5804 5807 5811 5814 5818 5822 5825 5828 5832 5835 5838 5841 5844 5846 5849 5851 5853 5854 5856 5857 5857 5859 5860 5860 5860 5860 5860 5860 5861 5861 5860 5859 5857 5856 5854 5853 5851 5849 5847 5845
5780 5784 5788 5792 5795 5799 5803 5806 5810 5813 5816 5820 5823 5827 5830 5833 5835 5838 5840 5842 5844 5846 5848 5849 5850 5851 5852 5853 5853 5853 5853 5853 5853 5853 5852 5851 5851 5849 5848 5846 5844 5842 5840 5838
5772 5777 5780 5784 5788 5791 5794 5798 5801 5805 5808 5811 5815 5818 5821 5824 5827 5830 5832 5834 5836 5837 5839 5840 5841 5842 5843 5844 5844 5844 5844 5844 5844 5845 5844 5844 5843 5842 5840 5838 5837 5835 5833 5831
5764 5768 5772 5776 5779 5783 5786 5789 5792 5796 5799 5803 5806 5809 5812 5815 5818 5821 5823 5824 5826 5828 5830 5831 5833 5834 5834 5835 5835 5836 5836 5836 5836 5836 5836 5835 5835 5833 5832 5830 5828 5827 5825 5823
5756 5760 5764 5768 5771 5775 5778 5781 5784 5787 5790 5793 5797 5800 5802 5805 5808 5811 5813 5815 5816 5818 5820 5821 5823 5824 5825 5826 5826 5827 5827 5826 5827 5827 5827 5826 5826 5824 5823 5821 5820 5818 5816 5814
5749 5753 5756 5760 5763 5766 5769 5773 5775 5778 5781 5784 5788 5790 5793 5796 5799 5801 5802 5804 5806 5808 5809 5810 5812 5813 5814 5816 5816 5816 5816 5816 5817 5817 5818 5817 5816 5815 5814 5812 5811 5809 5807 5805
5741 5745 5749 5752 5756 5759 5762 5765 5767 5770 5772 5775 5778 5781 5784 5786 5789 5791 5793 5794 5796 5798 5799 5800 5801 5802 5804 5805 5806 5807 5807 5807 5806 5807 5808 5808 5807 5806 5805 5803 5801 5799 5798 5796
5733 5737 5741 5745 5748 5751 5754 5756 5759 5762 5764 5766 5769 5772 5774 5776 5779 5781 5783 5785 5786 5788 5789 5790 5791 5792 5794 5795 5796 5797 5797 5797 5797 5798 5798 5798 5797 5797 5795 5794 5792 5790 5789 5786
5726 5730 5733 5737 5740 5742 5745 5748 5751 5753 5755 5757 5759 5762 5765 5767 5770 5772 5774 5775 5776 5778 5780 5781 5782 5783 5784 5785 5786 5787 5787 5788 5788 5788 5789 5789 5788 5788 5786 5785 5783 5781 5780 5778
5720 5723 5727 5730 5732 5735 5737 5740 5742 5744 5746 5749 5751 5753 5756 5758 5760 5763 5764 5766 5767 5769 5770 5771 5773 5773 5774 5775 5776 5777 5778 5778 5779 5779 5780 5779 5779 5778 5777 5776 5774 5773 5771 5769
5713 5717 5720 5723 5725 5728 5730 5732 5735 5737 5738 5740 5742 5745 5747 5749 5751 5753 5755 5756 5758 5759 5761 5762 5763 5764 5765 5766 5767 5768 5768 5769 5769 5770 5770 5770 5770 5769 5768 5767 5765 5764 5762 5760
5707 5710 5713 5716 5718 5721 5723 5725 5727 5729 5730 5732 5734 5736 5738 5740 5742 5744 5746 5748 5749 5750 5752 5753 5754 5755 5756 5757 5758 5759 5759 5760 5761 5761 5761 5761 5761 5760 5759 5758 5756 5755 5753 5751
5701 5704 5707 5710 5712 5714 5716 5718 5720 5721 5723 5725 5726 5728 5730 5732 5734 5736 5737 5739 5740 5742 5743 5744 5746 5747 5748 5749 5749 5750 5751 5751 5752 5752 5752 5752 5751 5751 5750 5749 5747 5746 5744 5742
5695 5698 5701 5704 5706 5708 5710 5711 5713 5714 5716 5717 5719 5721 5722 5724 5726 5728 5730 5731 5732 5734 5735 5737 5738 5738 5739 5740 5741 5741 5742 5743 5743 5743 5743 5743 5742 5742 5741 5739 5738 5736 5734 5732
5690 5693 5695 5698 5699 5701 5703 5705 5706 5708 5709 5710 5712 5713 5715 5716 5718 5720 5722 5724 5725 5727 5728 5729 5729 5730 5731 5731 5732 5733 5733 5734 5734 5734 5734 5734 5733 5733 5732 5730 5729 5727 5725 5723
5685 5687 5690 5692 5693 5695 5697 5698 5700 5701 5703 5704 5705 5706 5708 5710 5711 5713 5715 5716 5717 5718 5719 5720 5721 5721 5722 5723 5724 5724 5725 5725 5725 5725 5725 5725 5724 5724 5723 5722 5720 5718 5716 5714
5680 5683 5685 5686 5688 5690 5691 5693 5695 5696 5698 5699 5700 5701 5702 5704 5705 5706 5708 5709 5710 5710 5711 5712 5713 5713 5714 5715 5715 5716 5716 5716 5717 5717 5716 5716 5716 5715 5714 5712 5711 5710 5708 5706
5676 5678 5680 5681 5683 5684 5686 5687 5689 5690 5692 5694 5695 5696 5697 5698 5699 5700 5701 5702 5703 5703 5704 5704 5705 5705 5706 5706 5707 5707 5708 5708 5708 5708 5708 5708 5707 5706 5705 5704 5702 5701 5699 5697